Location: Delia
(51.6321°N, 112.3740°W)
Time: 20:23:55
(UTC+00:00)

Envisat - Pass Details

Date: 11 December 2021
Orbit: 764 x 766 km, 98.2° (Epoch: 26 January)

Event Time Altitude Azimuth Distance (km) Brightness Sun altitude
Rises 11:11:14 0° 27° (NNE) 3,246 6.7 -38.1°
Reaches altitude 10° 11:14:25 10° 47° (NE) 2,314 6.0 -37.6°
Maximum altitude 11:17:39 17° 87° (E) 1,879 5.6 -37.1°
Drops below altitude 10° 11:20:52 10° 127° (SE) 2,301 5.9 -36.6°
Sets 11:24:00 0° 147° (SSE) 3,221 6.5 -36.2°
